| time (UTC) | temp C | wind direction | speed KPH | gust KPH | rain 1hr cm | rain 24hr cm | rain mn cm | humidity % | barometer mb |
| 20260506133017 | 3 | 315 | 16.1 | 22.5 | 0.00 | 0.00 | 0.00 | 68 | 1017.7 |
| 20260506130016 | 3 | 293 | 11.3 | 17.7 | 0.00 | 0.00 | 0.00 | 70 | 1017.2 |
| 20260506123057 | 2 | 293 | 8.0 | 17.7 | 0.00 | 0.00 | 0.00 | 71 | 1017.0 |
| 20260506120037 | 2 | 293 | 3.2 | 11.3 | 0.00 | 0.00 | 0.00 | 75 | 1016.6 |
| 20260506113017 | 1 | 293 | 1.6 | 4.8 | 0.00 | 0.00 | 0.00 | 75 | 1016.1 |
| 20260506110016 | 0 | 293 | 1.6 | 4.8 | 0.00 | 0.00 | 0.00 | 74 | 1015.5 |
| 20260506103057 | 1 | 293 | 1.6 | 6.4 | 0.00 | 0.00 | 0.00 | 73 | 1015.6 |
| 20260506100016 | 1 | 293 | 3.2 | 8.0 | 0.00 | 0.00 | 0.00 | 72 | 1015.9 |
| 20260506093058 | 1 | 293 | 6.4 | 8.0 | 0.00 | 0.00 | 0.00 | 71 | 1015.4 |
| 20260506090016 | 1 | 293 | 6.4 | 8.0 | 0.00 | 0.00 | 0.00 | 71 | 1015.4 |
| 20260506083016 | 1 | 293 | 6.4 | 8.0 | 0.00 | 0.00 | 0.00 | 70 | 1015.4 |
| 20260506073016 | 2 | 315 | 4.8 | 8.0 | 0.00 | 0.00 | 0.00 | 67 | 1015.2 |
| 20260506043017 | 3 | 315 | 8.0 | 12.9 | 0.00 | 0.00 | 0.00 | 61 | 1014.7 |
| 20260506040017 | 4 | 338 | 11.3 | 16.1 | 0.00 | 0.00 | 0.00 | 58 | 1014.5 |
| 20260506033017 | 5 | 338 | 11.3 | 16.1 | 0.00 | 0.00 | 0.00 | 57 | 1014.2 |
| 20260506030037 | 5 | 338 | 12.9 | 24.1 | 0.00 | 0.00 | 0.00 | 54 | 1014.3 |
| 20260506023016 | 6 | 338 | 17.7 | 25.7 | 0.00 | 0.00 | 0.00 | 51 | 1014.0 |
| 20260506020016 | 7 | 338 | 22.5 | 32.2 | 0.00 | 0.00 | 0.00 | 48 | 1013.3 |
| 20260506013037 | 8 | 315 | 25.7 | 35.4 | 0.00 | 0.00 | 0.00 | 45 | 1012.8 |
| 20260506010016 | 8 | 338 | 29.0 | 40.2 | 0.00 | 0.00 | 0.00 | 44 | 1012.5 |
| 20260506003017 | 9 | 338 | 27.4 | 37.0 | 0.00 | 0.00 | 0.00 | 42 | 1012.2 |
| 20260506000015 | 10 | 315 | 27.4 | 41.8 | 0.00 | 0.00 | 0.00 | 41 | 1012.1 |
| 20260505233016 | 10 | 315 | 29.0 | 41.8 | 0.00 | 0.00 | 0.00 | 38 | 1012.0 |
| 20260505230016 | 10 | 315 | 29.0 | 43.5 | 0.00 | 0.00 | 0.00 | 37 | 1011.6 |
| 20260505223015 | 11 | 315 | 29.0 | 43.5 | 0.00 | 0.00 | 0.00 | 37 | 1011.6 |
| 20260505220016 | 11 | 315 | 27.4 | 43.5 | 0.00 | 0.00 | 0.00 | 37 | 1011.7 |
| 20260505213017 | 11 | 315 | 27.4 | 45.1 | 0.00 | 0.00 | 0.00 | 37 | 1011.7 |
| 20260505210018 | 11 | 315 | 20.9 | 38.6 | 0.00 | 0.00 | 0.00 | 37 | 1011.9 |
| 20260505203018 | 10 | 315 | 20.9 | 33.8 | 0.00 | 0.00 | 0.00 | 38 | 1012.1 |
| 20260505200017 | 10 | 315 | 20.9 | 35.4 | 0.00 | 0.00 | 0.00 | 39 | 1012.2 |
| 20260505193017 | 10 | 315 | 22.5 | 40.2 | 0.00 | 0.00 | 0.00 | 39 | 1012.3 |
| 20260505190038 | 10 | 293 | 16.1 | 32.2 | 0.00 | 0.00 | 0.00 | 40 | 1012.2 |
| 20260505183038 | 10 | 315 | 16.1 | 30.6 | 0.00 | 0.00 | 0.00 | 44 | 1012.2 |
| 20260505180038 | 9 | 315 | 20.9 | 32.2 | 0.00 | 0.00 | 0.00 | 43 | 1012.3 |
| 20260505173017 | 8 | 315 | 20.9 | 33.8 | 0.00 | 0.00 | 0.00 | 44 | 1012.2 |
| 20260505170017 | 8 | 315 | 16.1 | 29.0 | 0.00 | 0.00 | 0.00 | 47 | 1012.1 |
| 20260505163017 | 8 | 315 | 16.1 | 27.4 | 0.00 | 0.00 | 0.00 | 49 | 1012.2 |
| 20260505153016 | 8 | 338 | 12.9 | 27.4 | 0.00 | 0.00 | 0.00 | 53 | 1012.1 |